Location: Bald Rock
(37.3738°N, 119.9354°W)
Time: 13:01:45
(UTC+00:00)

Lacrosse 5 rocket - Pass Details

Date: 08 September 2024
Orbit: 430 x 563 km, 57.0° (Epoch: 12 October)

Event Time Altitude Azimuth Distance (km) Brightness Sun altitude
Exits shadow 12:20:28 - 179° (S) 2,391 4.4 -15.5°
Reaches altitude 10° 12:23:17 10° 153° (SSE) 1,551 3.7 -15.0°
Maximum altitude 12:25:05 14° 121° (ESE) 1,339 3.8 -14.6°
Drops below altitude 10° 12:26:52 10° 90° (E) 1,537 4.8 -14.3°
Sets 12:29:45 0° 62° (ENE) 2,400 6.4 -13.8°
